Overview Statistics Trail Chart Weather Telemetry Raw packets
 

This is the latest recevied weather packets stored in our database for station/object W8KVG. If no packets are shown the sender has not sent any weather packets the latest 10 day(s).

<< 41 42 43 44 45 46 47 >>
Time Temp. Humidity Pressure Rain* Wind** Luminosity Snow
1777654422 10.56° C 77% 1010.9 hPa 0 mm - 128 W/m² -
1777654121 10.56° C 76% 1010.9 hPa 0 mm - 172 W/m² -
1777653817 10.56° C 76% 1011.2 hPa 0 mm - 127 W/m² -
1777653512 10.56° C 77% 1011.3 hPa 0 mm - 116 W/m² -
1777653209 11.11° C 79% 1011.1 hPa 0 mm - 108 W/m² -
1777652906 10.56° C 81% 1011.3 hPa 0 mm - 181 W/m² -
1777652603 10° C 79% 1011.3 hPa 0 mm - 208 W/m² -
1777652300 10° C 83% 1011.4 hPa 0 mm - 184 W/m² -
1777651997 9.44° C 80% 1011.2 hPa 0 mm - 144 W/m² -
1777651693 10° C 80% 1011.5 hPa 0 mm - 73 W/m² -
1777651390 10° C 79% 1011.6 hPa 0 mm - 59 W/m² -
1777651088 10° C 77% 1011.5 hPa 0 mm - 82 W/m² -
1777650784 10.56° C 79% 1011.5 hPa 0 mm - 97 W/m² -
1777650481 10.56° C 78% 1011.5 hPa 0 mm - 172 W/m² -
1777650178 10° C 80% 1011.7 hPa 0 mm - 139 W/m² -
1777649876 10° C 79% 1011.5 hPa 0 mm - 107 W/m² -
1777649573 9.44° C 79% 1011.7 hPa 0 mm - 75 W/m² -
1777649269 10° C 79% 1011.7 hPa 0 mm - 80 W/m² -
1777648966 10.56° C 77% 1011.7 hPa 0 mm - 88 W/m² -
1777648664 10° C 77% 1011.7 hPa 0 mm - 110 W/m² -
1777648359 10.56° C 79% 1011.8 hPa 0 mm - 146 W/m² -
1777648056 9.44° C 82% 1011.9 hPa 0 mm - 164 W/m² -
1777647752 8.89° C 82% 1011.7 hPa 0 mm - 102 W/m² -
1777647448 8.89° C 82% 1011.6 hPa 0 mm - 75 W/m² -
1777647146 8.89° C 82% 1011.6 hPa 0 mm - 66 W/m² -

* Rain latest hour (hover to see other rain measurements)
** Current wind speed in m/s (hover to see current wind gust speed)